Location: Long Barn
(38.0930°N, 120.1344°W)
Time: 23:22:38
(UTC+00:00)

Meteor 1-24 Rocket - Pass Details

Date: 05 August 2024
Orbit: 790 x 926 km, 81.3° (Epoch: 08 September)

Event Time Altitude Azimuth Distance (km) Brightness Sun altitude
Rises 12:27:32 0° 343° (NNW) 3,484 7.1 -7.9°
Reaches altitude 10° 12:30:02 10° 337° (NNW) 2,561 6.3 -7.5°
Maximum altitude 12:35:33 44° 267° (W) 1,228 4.2 -6.5°
Drops below altitude 10° 12:41:10 10° 197° (SSW) 2,606 5.9 -5.5°
Sets 12:43:45 0° 191° (S) 3,552 6.6 -5.1°
